| time (UTC) | temp F | wind direction | speed MPH | gust MPH | rain 1hr in | rain 24hr in | rain mn in | humidity % | barometer mb |
| 20260906110654 | 93 | 73 | 0.0 | 5.0 | 0.00 | 0.00 | 0.00 | 41 | 1019.1 |
| 20260906105842 | 92 | 100 | 3.0 | 5.0 | 0.00 | 0.00 | 0.00 | 41 | 1019.1 |
| 20260906105453 | 91 | 110 | 3.0 | 4.0 | 0.00 | 0.00 | 0.00 | 43 | 1019.2 |
| 20260906105432 | 92 | 80 | 0.0 | 4.0 | 0.00 | 0.00 | 0.00 | 41 | 1019.2 |
| 20260906104341 | 92 | 96 | 3.0 | 4.0 | 0.00 | 0.00 | 0.00 | 41 | 1019.4 |
| 20260906103842 | 91 | 123 | 1.0 | 4.0 | 0.00 | 0.00 | 0.00 | 42 | 1019.4 |
| 20260906103340 | 91 | 96 | 1.0 | 7.0 | 0.00 | 0.00 | 0.00 | 43 | 1019.5 |
| 20260906102854 | 91 | 109 | 2.0 | 7.0 | 0.00 | 0.00 | 0.00 | 42 | 1019.5 |
| 20260906102341 | 91 | 111 | 3.0 | 6.0 | 0.00 | 0.00 | 0.00 | 43 | 1019.5 |
| 20260906101842 | 92 | 92 | 2.0 | 5.0 | 0.00 | 0.00 | 0.00 | 42 | 1019.5 |
| 20260906101343 | 92 | 97 | 1.0 | 3.0 | 0.00 | 0.00 | 0.00 | 42 | 1019.6 |
| 20260906100850 | 91 | 62 | 0.0 | 3.0 | 0.00 | 0.00 | 0.00 | 45 | 1019.6 |
| 20260906100656 | 91 | 92 | 2.0 | 3.0 | 0.00 | 0.00 | 0.00 | 43 | 1019.7 |
| 20260906095839 | 90 | 110 | 0.0 | 2.0 | 0.00 | 0.00 | 0.00 | 45 | 1019.8 |
| 20260906095340 | 89 | 110 | 0.0 | 1.0 | 0.00 | 0.00 | 0.00 | 45 | 1019.8 |
| 20260906094841 | 88 | 110 | 0.0 | 2.0 | 0.00 | 0.00 | 0.00 | 47 | 1019.7 |
| 20260906094343 | 87 | 114 | 0.0 | 2.0 | 0.00 | 0.00 | 0.00 | 49 | 1019.8 |
| 20260906093840 | 87 | 118 | 0.0 | 3.0 | 0.00 | 0.00 | 0.00 | 49 | 1019.9 |
| 20260906093340 | 87 | 99 | 1.0 | 3.0 | 0.00 | 0.00 | 0.00 | 48 | 1019.9 |
| 20260906092840 | 86 | 87 | 0.0 | 2.0 | 0.00 | 0.00 | 0.00 | 49 | 1020.0 |
| 20260906092341 | 85 | 87 | 1.0 | 2.0 | 0.00 | 0.00 | 0.00 | 50 | 1020.0 |
| 20260906091840 | 84 | 87 | 0.0 | 2.0 | 0.00 | 0.00 | 0.00 | 51 | 1019.9 |
| 20260906091339 | 84 | 106 | 2.0 | 4.0 | 0.00 | 0.00 | 0.00 | 52 | 1020.0 |
| 20260906090842 | 82 | 107 | 1.0 | 4.0 | 0.00 | 0.00 | 0.00 | 55 | 1020.2 |
| 20260906090340 | 82 | 106 | 1.0 | 3.0 | 0.00 | 0.00 | 0.00 | 55 | 1020.2 |
| 20260906085842 | 82 | 90 | 0.0 | 3.0 | 0.00 | 0.00 | 0.00 | 56 | 1020.2 |
| 20260906085654 | 80 | 86 | 0.0 | 3.0 | 0.00 | 0.00 | 0.00 | 58 | 1020.3 |
| 20260906084840 | 80 | 86 | 1.0 | 5.0 | 0.00 | 0.00 | 0.00 | 59 | 1020.3 |
| 20260906084339 | 79 | 83 | 3.0 | 5.0 | 0.00 | 0.00 | 0.00 | 58 | 1020.3 |
| 20260906083840 | 79 | 107 | 2.0 | 4.0 | 0.00 | 0.00 | 0.00 | 60 | 1020.2 |
| 20260906083340 | 79 | 103 | 2.0 | 3.0 | 0.00 | 0.00 | 0.00 | 59 | 1020.2 |
| 20260906082852 | 79 | 116 | 0.0 | 3.0 | 0.00 | 0.00 | 0.00 | 61 | 1020.2 |
| 20260906082340 | 78 | 94 | 2.0 | 3.0 | 0.00 | 0.00 | 0.00 | 62 | 1020.2 |
| 20260906082155 | 77 | 73 | 2.0 | 2.0 | 0.00 | 0.00 | 0.00 | 63 | 1020.3 |
| 20260906081656 | 77 | 102 | 1.0 | 2.0 | 0.00 | 0.00 | 0.00 | 65 | 1020.0 |
| 20260906081151 | 76 | 73 | 1.0 | 3.0 | 0.00 | 0.00 | 0.00 | 66 | 1020.3 |
| 20260906080648 | 76 | 79 | 0.0 | 3.0 | 0.00 | 0.00 | 0.00 | 68 | 1020.3 |
| 20260906075839 | 75 | 85 | 0.0 | 1.0 | 0.00 | 0.00 | 0.00 | 69 | 1020.2 |
| 20260906075339 | 75 | 85 | 0.0 | 2.0 | 0.00 | 0.00 | 0.00 | 67 | 1020.3 |
| 20260906074839 | 76 | 85 | 0.0 | 2.0 | 0.00 | 0.00 | 0.00 | 66 | 1020.3 |
| 20260906074643 | 76 | 49 | 0.0 | 3.0 | 0.00 | 0.00 | 0.00 | 67 | 1020.2 |
| 20260906073839 | 76 | 76 | 1.0 | 4.0 | 0.00 | 0.00 | 0.00 | 66 | 1020.3 |
| 20260906073649 | 75 | 93 | 2.0 | 4.0 | 0.00 | 0.00 | 0.00 | 66 | 1020.2 |
| 20260906072839 | 75 | 76 | 0.0 | 3.0 | 0.00 | 0.00 | 0.00 | 68 | 1020.3 |
| 20260906072647 | 75 | 83 | 1.0 | 3.0 | 0.00 | 0.00 | 0.00 | 68 | 1020.3 |
| 20260906071840 | 73 | 90 | 0.0 | 2.0 | 0.00 | 0.00 | 0.00 | 69 | 1020.3 |
| 20260906071337 | 72 | 97 | 0.0 | 2.0 | 0.00 | 0.00 | 0.00 | 72 | 1020.2 |
| 20260906070837 | 72 | 90 | 1.0 | 2.0 | 0.00 | 0.00 | 0.00 | 71 | 1020.2 |
| 20260906070649 | 71 | 92 | 1.0 | 2.0 | 0.00 | 0.00 | 0.00 | 74 | 1020.2 |
| 20260906065837 | 70 | 106 | 0.0 | 2.0 | 0.00 | 0.00 | 0.00 | 74 | 1020.0 |
| 20260906065649 | 70 | 106 | 0.0 | 2.0 | 0.00 | 0.00 | 0.00 | 75 | 1020.2 |
| 20260906064837 | 70 | 100 | 0.0 | 2.0 | 0.00 | 0.00 | 0.00 | 75 | 1019.9 |
| 20260906064656 | 70 | 96 | 0.0 | 0.0 | 0.00 | 0.00 | 0.00 | 75 | 1020.2 |
| 20260906064149 | 70 | 290 | 0.0 | 0.0 | 0.00 | 0.00 | 0.00 | 74 | 1020.0 |
| 20260906063337 | 70 | 290 | 0.0 | 0.0 | 0.00 | 0.00 | 0.00 | 76 | 1020.2 |
| 20260906062836 | 69 | 288 | 0.0 | 0.0 | 0.00 | 0.00 | 0.00 | 78 | 1020.3 |
| 20260906062336 | 68 | 288 | 0.0 | 0.0 | 0.00 | 0.00 | 0.00 | 78 | 1020.0 |
| 20260906061837 | 67 | 288 | 0.0 | 1.0 | 0.00 | 0.00 | 0.00 | 78 | 1019.9 |
| 20260906061337 | 66 | 288 | 0.0 | 2.0 | 0.00 | 0.00 | 0.00 | 79 | 1019.9 |
| 20260906060837 | 66 | 288 | 1.0 | 2.0 | 0.00 | 0.00 | 0.00 | 80 | 1019.9 |
| 20260906060336 | 65 | 289 | 1.0 | 2.0 | 0.00 | 0.00 | 0.00 | 82 | 1019.9 |
| 20260906060151 | 65 | 289 | 1.0 | 2.0 | 0.00 | 0.00 | 0.00 | 83 | 1020.0 |
| 20260906055335 | 64 | 283 | 1.0 | 2.0 | 0.00 | 0.00 | 0.00 | 83 | 1020.0 |
| 20260906054837 | 64 | 283 | 2.0 | 4.0 | 0.00 | 0.00 | 0.00 | 83 | 1019.9 |
| 20260906054335 | 64 | 283 | 2.0 | 4.0 | 0.00 | 0.00 | 0.00 | 82 | 1019.7 |
| 20260906053835 | 64 | 290 | 2.0 | 3.0 | 0.00 | 0.00 | 0.00 | 83 | 1019.6 |
| 20260906053335 | 64 | 275 | 1.0 | 1.0 | 0.00 | 0.00 | 0.00 | 82 | 1019.2 |
| 20260906052835 | 64 | 275 | 0.0 | 1.0 | 0.00 | 0.00 | 0.00 | 83 | 1019.1 |
| 20260906052644 | 64 | 275 | 0.0 | 1.0 | 0.00 | 0.00 | 0.00 | 82 | 1019.1 |
| 20260906051834 | 64 | 275 | 0.0 | 0.0 | 0.00 | 0.00 | 0.00 | 83 | 1019.0 |
| 20260906051337 | 64 | 275 | 0.0 | 0.0 | 0.00 | 0.00 | 0.00 | 83 | 1018.9 |
| 20260906051142 | 64 | 275 | 0.0 | 0.0 | 0.00 | 0.00 | 0.00 | 82 | 1019.1 |
| 20260906050334 | 64 | 275 | 0.0 | 0.0 | 0.00 | 0.00 | 0.00 | 82 | 1019.0 |
| 20260906050141 | 64 | 275 | 0.0 | 1.0 | 0.00 | 0.00 | 0.00 | 81 | 1018.9 |
| 20260906045335 | 64 | 275 | 0.0 | 1.0 | 0.00 | 0.00 | 0.00 | 80 | 1018.9 |
| 20260906044835 | 63 | 275 | 0.0 | 1.0 | 0.00 | 0.00 | 0.00 | 79 | 1018.9 |
| 20260906044335 | 64 | 275 | 1.0 | 1.0 | 0.00 | 0.00 | 0.00 | 79 | 1018.9 |
| 20260906043838 | 64 | 275 | 1.0 | 1.0 | 0.00 | 0.00 | 0.00 | 78 | 1019.0 |
| 20260906043334 | 64 | 275 | 1.0 | 1.0 | 0.00 | 0.00 | 0.00 | 79 | 1018.9 |
| 20260906042833 | 64 | 275 | 0.0 | 1.0 | 0.00 | 0.00 | 0.00 | 78 | 1018.9 |
| 20260906042335 | 64 | 275 | 0.0 | 1.0 | 0.00 | 0.00 | 0.00 | 78 | 1019.0 |
| 20260906041833 | 64 | 275 | 0.0 | 0.0 | 0.00 | 0.00 | 0.00 | 79 | 1019.0 |
| 20260906041651 | 64 | 275 | 0.0 | 0.0 | 0.00 | 0.00 | 0.00 | 77 | 1018.9 |
| 20260906040834 | 64 | 275 | 0.0 | 1.0 | 0.00 | 0.00 | 0.00 | 77 | 1019.0 |
| 20260906040349 | 64 | 275 | 0.0 | 1.0 | 0.00 | 0.00 | 0.00 | 77 | 1019.0 |
| 20260906035833 | 64 | 275 | 0.0 | 1.0 | 0.00 | 0.00 | 0.00 | 77 | 1019.0 |
| 20260906035639 | 64 | 275 | 1.0 | 1.0 | 0.00 | 0.00 | 0.00 | 77 | 1018.9 |
| 20260906035147 | 64 | 275 | 0.0 | 1.0 | 0.00 | 0.00 | 0.00 | 77 | 1019.0 |
| 20260906034334 | 64 | 275 | 0.0 | 1.0 | 0.00 | 0.00 | 0.00 | 77 | 1019.0 |
| 20260906033833 | 64 | 275 | 1.0 | 1.0 | 0.00 | 0.00 | 0.00 | 76 | 1019.0 |
| 20260906033645 | 64 | 275 | 0.0 | 1.0 | 0.00 | 0.00 | 0.00 | 76 | 1019.1 |
| 20260906032837 | 64 | 275 | 0.0 | 1.0 | 0.00 | 0.00 | 0.00 | 76 | 1019.2 |
| 20260906032638 | 65 | 275 | 0.0 | 0.0 | 0.00 | 0.00 | 0.00 | 76 | 1019.2 |
| 20260906031834 | 65 | 275 | 0.0 | 0.0 | 0.00 | 0.00 | 0.00 | 75 | 1019.1 |
| 20260906031333 | 65 | 275 | 0.0 | 0.0 | 0.00 | 0.00 | 0.00 | 74 | 1019.2 |
| 20260906030834 | 65 | 275 | 0.0 | 0.0 | 0.00 | 0.00 | 0.00 | 74 | 1019.3 |
| 20260906030332 | 65 | 275 | 0.0 | 1.0 | 0.00 | 0.00 | 0.00 | 74 | 1019.4 |
| 20260906025832 | 65 | 275 | 0.0 | 1.0 | 0.00 | 0.00 | 0.00 | 73 | 1019.3 |
| 20260906025333 | 65 | 275 | 0.0 | 0.0 | 0.00 | 0.00 | 0.00 | 73 | 1019.4 |
| 20260906025139 | 65 | 275 | 0.0 | 0.0 | 0.00 | 0.00 | 0.00 | 72 | 1019.3 |
| 20260906024332 | 66 | 275 | 0.0 | 0.0 | 0.00 | 0.00 | 0.00 | 71 | 1019.4 |
| 20260906024142 | 67 | 275 | 0.0 | 0.0 | 0.00 | 0.00 | 0.00 | 71 | 1019.5 |
| 20260906023502 | 67 | 275 | 0.0 | 1.0 | 0.00 | 0.00 | 0.00 | 69 | 1019.5 |
| 20260906023429 | 67 | 275 | 0.0 | 1.0 | 0.00 | 0.00 | 0.00 | 70 | 1019.5 |
| 20260906022333 | 67 | 275 | 0.0 | 1.0 | 0.00 | 0.00 | 0.00 | 69 | 1019.4 |
| 20260906021832 | 67 | 275 | 1.0 | 1.0 | 0.00 | 0.00 | 0.00 | 69 | 1019.4 |
| 20260906021331 | 67 | 275 | 0.0 | 1.0 | 0.00 | 0.00 | 0.00 | 69 | 1019.5 |
| 20260906020833 | 67 | 275 | 1.0 | 1.0 | 0.00 | 0.00 | 0.00 | 68 | 1019.5 |
| 20260906020330 | 67 | 275 | 0.0 | 1.0 | 0.00 | 0.00 | 0.00 | 68 | 1019.5 |
| 20260906020147 | 67 | 275 | 1.0 | 1.0 | 0.00 | 0.00 | 0.00 | 69 | 1019.6 |
| 20260906015504 | 67 | 272 | 0.0 | 1.0 | 0.00 | 0.00 | 0.00 | 68 | 1019.5 |
| 20260906015433 | 67 | 274 | 0.0 | 1.0 | 0.00 | 0.00 | 0.00 | 68 | 1019.6 |
| 20260906014330 | 67 | 272 | 0.0 | 1.0 | 0.00 | 0.00 | 0.00 | 68 | 1019.6 |
| 20260906013830 | 67 | 272 | 0.0 | 1.0 | 0.00 | 0.00 | 0.00 | 68 | 1019.6 |
| 20260906013332 | 67 | 272 | 0.0 | 1.0 | 0.00 | 0.00 | 0.00 | 66 | 1019.7 |
| 20260906012830 | 68 | 272 | 0.0 | 2.0 | 0.00 | 0.00 | 0.00 | 65 | 1019.7 |
| 20260906012330 | 68 | 272 | 0.0 | 2.0 | 0.00 | 0.00 | 0.00 | 64 | 1019.7 |
| 20260906011829 | 68 | 274 | 2.0 | 2.0 | 0.00 | 0.00 | 0.00 | 63 | 1019.7 |
| 20260906011330 | 69 | 285 | 2.0 | 2.0 | 0.00 | 0.00 | 0.00 | 62 | 1019.7 |
| 20260906010828 | 69 | 283 | 1.0 | 2.0 | 0.00 | 0.00 | 0.00 | 62 | 1019.7 |
| 20260906010646 | 68 | 283 | 1.0 | 2.0 | 0.00 | 0.00 | 0.00 | 64 | 1019.8 |
| 20260906005829 | 68 | 285 | 2.0 | 2.0 | 0.00 | 0.00 | 0.00 | 65 | 1019.8 |
| 20260906005329 | 67 | 283 | 1.0 | 2.0 | 0.00 | 0.00 | 0.00 | 65 | 1019.9 |
| 20260906004828 | 67 | 283 | 1.0 | 2.0 | 0.00 | 0.00 | 0.00 | 64 | 1019.9 |
| 20260906004328 | 67 | 285 | 2.0 | 2.0 | 0.00 | 0.00 | 0.00 | 63 | 1020.0 |
| 20260906003829 | 68 | 285 | 2.0 | 2.0 | 0.00 | 0.00 | 0.00 | 63 | 1019.9 |
| 20260906003638 | 68 | 283 | 1.0 | 1.0 | 0.00 | 0.00 | 0.00 | 63 | 1019.9 |
| 20260906002830 | 68 | 283 | 1.0 | 1.0 | 0.00 | 0.00 | 0.00 | 61 | 1019.9 |
| 20260906002328 | 69 | 283 | 1.0 | 1.0 | 0.00 | 0.00 | 0.00 | 60 | 1020.0 |
| 20260906001830 | 69 | 283 | 1.0 | 1.0 | 0.00 | 0.00 | 0.00 | 58 | 1020.0 |
| 20260906001340 | 69 | 283 | 1.0 | 1.0 | 0.00 | 0.00 | 0.00 | 58 | 1019.9 |
| 20260906000828 | 69 | 283 | 1.0 | 1.0 | 0.00 | 0.00 | 0.00 | 57 | 1019.9 |
| 20260906000636 | 69 | 283 | 0.0 | 1.0 | 0.00 | 0.00 | 0.00 | 57 | 1020.0 |
| 20260905235828 | 69 | 283 | 0.0 | 1.0 | 0.00 | 0.00 | 0.00 | 57 | 1020.0 |
| 20260905235329 | 69 | 283 | 1.0 | 1.0 | 0.00 | 0.00 | 0.00 | 59 | 1019.9 |
| 20260905234830 | 69 | 283 | 1.0 | 2.0 | 0.00 | 0.00 | 0.00 | 60 | 1019.9 |
| 20260905234328 | 69 | 285 | 1.0 | 2.0 | 0.00 | 0.00 | 0.00 | 62 | 1020.0 |
| 20260905234137 | 69 | 285 | 1.0 | 1.0 | 0.00 | 0.00 | 0.00 | 61 | 1019.9 |
| 20260905233327 | 69 | 285 | 1.0 | 2.0 | 0.00 | 0.00 | 0.00 | 59 | 1019.9 |
| 20260905232827 | 69 | 285 | 2.0 | 2.0 | 0.00 | 0.00 | 0.00 | 59 | 1020.0 |
| 20260905232635 | 70 | 285 | 2.0 | 2.0 | 0.00 | 0.00 | 0.00 | 61 | 1020.0 |
| 20260905231828 | 70 | 285 | 2.0 | 2.0 | 0.00 | 0.00 | 0.00 | 59 | 1019.9 |
| 20260905231327 | 70 | 285 | 1.0 | 2.0 | 0.00 | 0.00 | 0.00 | 58 | 1020.0 |
| 20260905230827 | 70 | 285 | 1.0 | 2.0 | 0.00 | 0.00 | 0.00 | 59 | 1019.9 |
| 20260905230328 | 70 | 285 | 2.0 | 2.0 | 0.00 | 0.00 | 0.00 | 59 | 1020.0 |
| 20260905225830 | 71 | 285 | 1.0 | 2.0 | 0.00 | 0.00 | 0.00 | 58 | 1019.9 |
| 20260905225326 | 71 | 285 | 1.0 | 2.0 | 0.00 | 0.00 | 0.00 | 57 | 1020.0 |
| 20260905225133 | 71 | 285 | 1.0 | 2.0 | 0.00 | 0.00 | 0.00 | 58 | 1019.9 |
| 20260905225128 | 71 | 285 | 1.0 | 2.0 | 0.00 | 0.00 | 0.00 | 58 | 1020.0 |
| 20260905225028 | 71 | 285 | 1.0 | 2.0 | 0.00 | 0.00 | 0.00 | 58 | 1020.0 |
| 20260905223326 | 71 | 285 | 1.0 | 2.0 | 0.00 | 0.00 | 0.00 | 57 | 1020.0 |
| 20260905222829 | 71 | 285 | 1.0 | 2.0 | 0.00 | 0.00 | 0.00 | 58 | 1020.0 |
| 20260905222327 | 71 | 285 | 1.0 | 2.0 | 0.00 | 0.00 | 0.00 | 58 | 1020.2 |
| 20260905221826 | 71 | 285 | 1.0 | 2.0 | 0.00 | 0.00 | 0.00 | 58 | 1020.2 |
| 20260905221328 | 71 | 285 | 2.0 | 2.0 | 0.00 | 0.00 | 0.00 | 57 | 1020.3 |
| 20260905220825 | 72 | 285 | 2.0 | 2.0 | 0.00 | 0.00 | 0.00 | 56 | 1020.3 |
| 20260905220326 | 73 | 285 | 1.0 | 2.0 | 0.00 | 0.00 | 0.00 | 56 | 1020.3 |
| 20260905215827 | 72 | 285 | 2.0 | 2.0 | 0.00 | 0.00 | 0.00 | 54 | 1020.2 |
| 20260905215633 | 73 | 285 | 1.0 | 2.0 | 0.00 | 0.00 | 0.00 | 54 | 1020.3 |
| 20260905215135 | 73 | 285 | 1.0 | 2.0 | 0.00 | 0.00 | 0.00 | 54 | 1020.3 |
| 20260905214324 | 72 | 285 | 2.0 | 2.0 | 0.00 | 0.00 | 0.00 | 54 | 1020.4 |
| 20260905213825 | 72 | 285 | 2.0 | 2.0 | 0.00 | 0.00 | 0.00 | 55 | 1020.5 |
| 20260905213327 | 72 | 285 | 1.0 | 2.0 | 0.00 | 0.00 | 0.00 | 54 | 1020.5 |
| 20260905212826 | 72 | 285 | 2.0 | 2.0 | 0.00 | 0.00 | 0.00 | 53 | 1020.5 |
| 20260905212627 | 72 | 282 | 1.0 | 2.0 | 0.00 | 0.00 | 0.00 | 53 | 1020.5 |
| 20260905211825 | 72 | 282 | 2.0 | 2.0 | 0.00 | 0.00 | 0.00 | 53 | 1020.5 |
| 20260905211323 | 72 | 282 | 2.0 | 2.0 | 0.00 | 0.00 | 0.00 | 53 | 1020.5 |
| 20260905210824 | 73 | 281 | 2.0 | 2.0 | 0.00 | 0.00 | 0.00 | 52 | 1020.6 |
| 20260905210635 | 73 | 279 | 1.0 | 2.0 | 0.00 | 0.00 | 0.00 | 51 | 1020.5 |
| 20260905205825 | 74 | 279 | 1.0 | 1.0 | 0.00 | 0.00 | 0.00 | 49 | 1020.5 |
| 20260905205324 | 74 | 279 | 1.0 | 1.0 | 0.00 | 0.00 | 0.00 | 48 | 1020.5 |
| 20260905204824 | 74 | 279 | 0.0 | 1.0 | 0.00 | 0.00 | 0.00 | 49 | 1020.6 |
| 20260905204325 | 74 | 279 | 1.0 | 1.0 | 0.00 | 0.00 | 0.00 | 49 | 1020.6 |
| 20260905203824 | 74 | 279 | 1.0 | 1.0 | 0.00 | 0.00 | 0.00 | 49 | 1020.6 |
| 20260905203322 | 74 | 279 | 1.0 | 2.0 | 0.00 | 0.00 | 0.00 | 49 | 1020.7 |
| 20260905202826 | 74 | 279 | 1.0 | 2.0 | 0.00 | 0.00 | 0.00 | 49 | 1020.8 |
| 20260905202322 | 75 | 279 | 1.0 | 1.0 | 0.00 | 0.00 | 0.00 | 49 | 1020.8 |
| 20260905202133 | 76 | 269 | 1.0 | 1.0 | 0.00 | 0.00 | 0.00 | 47 | 1020.7 |
| 20260905201322 | 76 | 269 | 1.0 | 1.0 | 0.00 | 0.00 | 0.00 | 45 | 1020.7 |
| 20260905200828 | 76 | 92 | 1.0 | 1.0 | 0.00 | 0.00 | 0.00 | 44 | 1020.7 |
| 20260905200322 | 77 | 92 | 0.0 | 1.0 | 0.00 | 0.00 | 0.00 | 43 | 1020.6 |
| 20260905195955 | 78 | 92 | 0.0 | 1.0 | 0.00 | 0.00 | 0.00 | 41 | 1020.7 |
| 20260905195918 | 77 | 92 | 1.0 | 1.0 | 0.00 | 0.00 | 0.00 | 42 | 1020.6 |
| 20260905194824 | 79 | 92 | 0.0 | 1.0 | 0.00 | 0.00 | 0.00 | 41 | 1020.7 |
| 20260905194634 | 79 | 92 | 0.0 | 1.0 | 0.00 | 0.00 | 0.00 | 40 | 1020.7 |
| 20260905194138 | 79 | 92 | 0.0 | 1.0 | 0.00 | 0.00 | 0.00 | 39 | 1020.6 |
| 20260905193634 | 80 | 92 | 0.0 | 1.0 | 0.00 | 0.00 | 0.00 | 39 | 1020.8 |
| 20260905193131 | 80 | 92 | 0.0 | 0.0 | 0.00 | 0.00 | 0.00 | 38 | 1020.6 |
| 20260905192323 | 80 | 92 | 0.0 | 0.0 | 0.00 | 0.00 | 0.00 | 38 | 1020.6 |
| 20260905191821 | 81 | 92 | 0.0 | 0.0 | 0.00 | 0.00 | 0.00 | 38 | 1020.6 |
| 20260905191322 | 81 | 92 | 0.0 | 0.0 | 0.00 | 0.00 | 0.00 | 38 | 1020.5 |
| 20260905190821 | 81 | 92 | 0.0 | 0.0 | 0.00 | 0.00 | 0.00 | 38 | 1020.5 |
| 20260905190321 | 82 | 92 | 0.0 | 0.0 | 0.00 | 0.00 | 0.00 | 38 | 1020.5 |
| 20260905185821 | 82 | 92 | 0.0 | 0.0 | 0.00 | 0.00 | 0.00 | 37 | 1020.5 |
| 20260905185320 | 82 | 92 | 0.0 | 0.0 | 0.00 | 0.00 | 0.00 | 37 | 1020.6 |
| 20260905184821 | 82 | 92 | 0.0 | 1.0 | 0.00 | 0.00 | 0.00 | 37 | 1020.7 |
| 20260905184323 | 82 | 92 | 0.0 | 1.0 | 0.00 | 0.00 | 0.00 | 37 | 1020.6 |
| 20260905183821 | 83 | 92 | 0.0 | 0.0 | 0.00 | 0.00 | 0.00 | 36 | 1020.6 |
| 20260905183321 | 83 | 92 | 0.0 | 0.0 | 0.00 | 0.00 | 0.00 | 36 | 1020.7 |
| 20260905182824 | 83 | 92 | 0.0 | 0.0 | 0.00 | 0.00 | 0.00 | 35 | 1020.7 |
| 20260905182320 | 84 | 92 | 0.0 | 1.0 | 0.00 | 0.00 | 0.00 | 35 | 1020.7 |
| 20260905181819 | 84 | 92 | 0.0 | 1.0 | 0.00 | 0.00 | 0.00 | 34 | 1020.7 |
| 20260905181631 | 84 | 92 | 0.0 | 1.0 | 0.00 | 0.00 | 0.00 | 34 | 1020.7 |
| 20260905180819 | 84 | 92 | 0.0 | 1.0 | 0.00 | 0.00 | 0.00 | 34 | 1020.8 |
| 20260905180320 | 84 | 92 | 0.0 | 1.0 | 0.00 | 0.00 | 0.00 | 34 | 1020.9 |
| 20260905175819 | 85 | 92 | 0.0 | 1.0 | 0.00 | 0.00 | 0.00 | 34 | 1020.8 |
| 20260905175320 | 85 | 92 | 0.0 | 0.0 | 0.00 | 0.00 | 0.00 | 35 | 1020.8 |
| 20260905174818 | 85 | 92 | 0.0 | 1.0 | 0.00 | 0.00 | 0.00 | 35 | 1020.9 |
| 20260905174319 | 85 | 92 | 0.0 | 1.0 | 0.00 | 0.00 | 0.00 | 36 | 1020.9 |
| 20260905173822 | 85 | 92 | 0.0 | 1.0 | 0.00 | 0.00 | 0.00 | 37 | 1020.9 |
| 20260905173318 | 86 | 92 | 0.0 | 1.0 | 0.00 | 0.00 | 0.00 | 37 | 1020.9 |
| 20260905172820 | 86 | 92 | 0.0 | 1.0 | 0.00 | 0.00 | 0.00 | 38 | 1020.8 |
| 20260905172317 | 87 | 92 | 0.0 | 2.0 | 0.00 | 0.00 | 0.00 | 37 | 1020.7 |
| 20260905171819 | 87 | 92 | 0.0 | 4.0 | 0.00 | 0.00 | 0.00 | 37 | 1020.8 |
| 20260905171320 | 88 | 102 | 0.0 | 4.0 | 0.00 | 0.00 | 0.00 | 37 | 1020.8 |
| 20260905170818 | 88 | 76 | 0.0 | 3.0 | 0.00 | 0.00 | 0.00 | 37 | 1020.8 |
| 20260905170630 | 88 | 113 | 0.0 | 3.0 | 0.00 | 0.00 | 0.00 | 37 | 1020.8 |
| 20260905165817 | 88 | 107 | 0.0 | 1.0 | 0.00 | 0.00 | 0.00 | 37 | 1020.8 |
| 20260905165628 | 88 | 110 | 0.0 | 1.0 | 0.00 | 0.00 | 0.00 | 37 | 1020.9 |
| 20260905164820 | 88 | 110 | 0.0 | 2.0 | 0.00 | 0.00 | 0.00 | 37 | 1020.9 |
| 20260905164318 | 88 | 110 | 1.0 | 2.0 | 0.00 | 0.00 | 0.00 | 36 | 1020.8 |
| 20260905163818 | 89 | 89 | 0.0 | 2.0 | 0.00 | 0.00 | 0.00 | 37 | 1020.8 |
| 20260905163319 | 89 | 89 | 1.0 | 4.0 | 0.00 | 0.00 | 0.00 | 37 | 1020.9 |
| 20260905162817 | 89 | 83 | 2.0 | 5.0 | 0.00 | 0.00 | 0.00 | 37 | 1020.8 |
| 20260905162319 | 89 | 114 | 2.0 | 5.0 | 0.00 | 0.00 | 0.00 | 36 | 1020.9 |
| 20260905161817 | 89 | 80 | 0.0 | 4.0 | 0.00 | 0.00 | 0.00 | 37 | 1020.8 |
| 20260905161329 | 89 | 110 | 0.0 | 4.0 | 0.00 | 0.00 | 0.00 | 37 | 1020.9 |
| 20260905160817 | 89 | 100 | 2.0 | 4.0 | 0.00 | 0.00 | 0.00 | 36 | 1020.9 |
| 20260905160315 | 89 | 117 | 1.0 | 3.0 | 0.00 | 0.00 | 0.00 | 35 | 1020.9 |
| 20260905160135 | 89 | 20 | 0.0 | 3.0 | 0.00 | 0.00 | 0.00 | 36 | 1020.9 |
| 20260905155316 | 89 | 83 | 0.0 | 4.0 | 0.00 | 0.00 | 0.00 | 36 | 1021.0 |
| 20260905154817 | 89 | 93 | 2.0 | 4.0 | 0.00 | 0.00 | 0.00 | 37 | 1021.0 |
| 20260905154317 | 89 | 102 | 0.0 | 2.0 | 0.00 | 0.00 | 0.00 | 36 | 1021.0 |
| 20260905153815 | 90 | 114 | 0.0 | 4.0 | 0.00 | 0.00 | 0.00 | 35 | 1021.0 |
| 20260905153316 | 90 | 92 | 2.0 | 4.0 | 0.00 | 0.00 | 0.00 | 35 | 1021.0 |
| 20260905152816 | 90 | 107 | 1.0 | 3.0 | 0.00 | 0.00 | 0.00 | 36 | 1021.1 |
| 20260905152317 | 90 | 121 | 0.0 | 3.0 | 0.00 | 0.00 | 0.00 | 36 | 1021.0 |
| 20260905152124 | 91 | 110 | 1.0 | 3.0 | 0.00 | 0.00 | 0.00 | 35 | 1021.0 |
| 20260905151317 | 91 | 89 | 0.0 | 4.0 | 0.00 | 0.00 | 0.00 | 36 | 1021.1 |
| 20260905150816 | 91 | 107 | 0.0 | 4.0 | 0.00 | 0.00 | 0.00 | 34 | 1021.2 |
| 20260905150316 | 91 | 134 | 0.0 | 3.0 | 0.00 | 0.00 | 0.00 | 34 | 1021.3 |
| 20260905145815 | 92 | 103 | 1.0 | 3.0 | 0.00 | 0.00 | 0.00 | 34 | 1021.3 |
| 20260905145315 | 92 | 89 | 0.0 | 2.0 | 0.00 | 0.00 | 0.00 | 34 | 1021.4 |
| 20260905144817 | 92 | 89 | 0.0 | 1.0 | 0.00 | 0.00 | 0.00 | 33 | 1021.4 |
| 20260905144316 | 91 | 78 | 0.0 | 1.0 | 0.00 | 0.00 | 0.00 | 34 | 1021.4 |
| 20260905143816 | 91 | 78 | 0.0 | 2.0 | 0.00 | 0.00 | 0.00 | 34 | 1021.4 |
| 20260905143315 | 90 | 78 | 0.0 | 2.0 | 0.00 | 0.00 | 0.00 | 34 | 1021.5 |
| 20260905142946 | 91 | 113 | 2.0 | 5.0 | 0.00 | 0.00 | 0.00 | 34 | 1021.6 |
| 20260905142914 | 90 | 118 | 0.0 | 5.0 | 0.00 | 0.00 | 0.00 | 35 | 1021.6 |
| 20260905141816 | 91 | 89 | 0.0 | 3.0 | 0.00 | 0.00 | 0.00 | 35 | 1021.7 |
| 20260905141313 | 91 | 23 | 0.0 | 3.0 | 0.00 | 0.00 | 0.00 | 34 | 1021.6 |
| 20260905141128 | 91 | 90 | 1.0 | 3.0 | 0.00 | 0.00 | 0.00 | 34 | 1021.7 |
| 20260905140314 | 91 | 120 | 1.0 | 3.0 | 0.00 | 0.00 | 0.00 | 34 | 1021.7 |
| 20260905135813 | 90 | 125 | 0.0 | 4.0 | 0.00 | 0.00 | 0.00 | 33 | 1021.7 |
| 20260905135315 | 90 | 100 | 2.0 | 4.0 | 0.00 | 0.00 | 0.00 | 33 | 1021.8 |
| 20260905134814 | 91 | 269 | 0.0 | 4.0 | 0.00 | 0.00 | 0.00 | 34 | 1021.8 |
| 20260905134314 | 91 | 87 | 1.0 | 4.0 | 0.00 | 0.00 | 0.00 | 34 | 1021.9 |
| 20260905133815 | 90 | 82 | 0.0 | 3.0 | 0.00 | 0.00 | 0.00 | 37 | 1022.1 |
| 20260905133314 | 89 | 82 | 0.0 | 5.0 | 0.00 | 0.00 | 0.00 | 36 | 1022.1 |
| 20260905132943 | 89 | 114 | 2.0 | 6.0 | 0.00 | 0.00 | 0.00 | 36 | 1022.2 |
| 20260905132912 | 89 | 107 | 2.0 | 6.0 | 0.00 | 0.00 | 0.00 | 36 | 1022.1 |
| 20260905131813 | 90 | 110 | 2.0 | 6.0 | 0.00 | 0.00 | 0.00 | 37 | 1022.3 |
| 20260905131312 | 90 | 96 | 2.0 | 4.0 | 0.00 | 0.00 | 0.00 | 36 | 1022.3 |
| 20260905130814 | 89 | 49 | 0.0 | 5.0 | 0.00 | 0.00 | 0.00 | 37 | 1022.3 |
| 20260905130312 | 89 | 75 | 0.0 | 5.0 | 0.00 | 0.00 | 0.00 | 39 | 1022.3 |
| 20260905125814 | 89 | 117 | 3.0 | 4.0 | 0.00 | 0.00 | 0.00 | 37 | 1022.4 |
| 20260905125312 | 89 | 109 | 0.0 | 4.0 | 0.00 | 0.00 | 0.00 | 39 | 1022.5 |
| 20260905124810 | 89 | 114 | 1.0 | 3.0 | 0.00 | 0.00 | 0.00 | 39 | 1022.5 |
| 20260905124312 | 88 | 217 | 0.0 | 5.0 | 0.00 | 0.00 | 0.00 | 39 | 1022.6 |
| 20260905123813 | 88 | 125 | 2.0 | 5.0 | 0.00 | 0.00 | 0.00 | 39 | 1022.7 |
| 20260905123312 | 88 | 203 | 0.0 | 6.0 | 0.00 | 0.00 | 0.00 | 42 | 1022.6 |
| 20260905122812 | 87 | 204 | 1.0 | 6.0 | 0.00 | 0.00 | 0.00 | 42 | 1022.7 |
| 20260905122315 | 87 | 109 | 2.0 | 6.0 | 0.00 | 0.00 | 0.00 | 43 | 1022.8 |
| 20260905121812 | 87 | 106 | 2.0 | 3.0 | 0.00 | 0.00 | 0.00 | 42 | 1022.9 |
| 20260905121314 | 87 | 109 | 1.0 | 3.0 | 0.00 | 0.00 | 0.00 | 42 | 1022.9 |
| 20260905120812 | 87 | 286 | 2.0 | 3.0 | 0.00 | 0.00 | 0.00 | 39 | 1022.9 |
| 20260905120312 | 87 | 92 | 0.0 | 5.0 | 0.00 | 0.00 | 0.00 | 39 | 1023.1 |
| 20260905115813 | 87 | 92 | 1.0 | 5.0 | 0.00 | 0.00 | 0.00 | 39 | 1023.0 |
| 20260905115311 | 87 | 83 | 0.0 | 2.0 | 0.00 | 0.00 | 0.00 | 41 | 1023.1 |
| 20260905114811 | 86 | 82 | 1.0 | 5.0 | 0.00 | 0.00 | 0.00 | 44 | 1023.2 |
| 20260905114311 | 86 | 89 | 2.0 | 5.0 | 0.00 | 0.00 | 0.00 | 44 | 1023.2 |
| 20260905113812 | 87 | 104 | 1.0 | 3.0 | 0.00 | 0.00 | 0.00 | 45 | 1023.2 |
| 20260905113441 | 86 | 63 | 1.0 | 4.0 | 0.00 | 0.00 | 0.00 | 48 | 1023.3 |
| 20260905113408 | 86 | 123 | 0.0 | 4.0 | 0.00 | 0.00 | 0.00 | 46 | 1023.2 |
| 20260905112309 | 85 | 87 | 0.0 | 5.0 | 0.00 | 0.00 | 0.00 | 48 | 1023.4 |
| 20260905111812 | 85 | 117 | 3.0 | 6.0 | 0.00 | 0.00 | 0.00 | 48 | 1023.4 |